2023/01/28 00:00:00,76.6,-0.3
2023/01/28 00:10:00,76.8,-0.2
2023/01/28 00:20:00,77.4,-0.4
2023/01/28 00:30:00,77.9,-0.2
2023/01/28 00:40:00,77.8,-0.4
2023/01/28 00:50:00,77.9,-0.2
2023/01/28 01:00:00,78.6,-0.5
2023/01/28 01:10:00,79.6,-0.6
2023/01/28 01:20:00,80.8,-0.5
2023/01/28 01:30:00,81.4,-0.7
2023/01/28 01:40:00,81.8,-0.6
2023/01/28 01:50:00,82.3,-0.7
2023/01/28 02:00:00,82.3,-0.5
2023/01/28 02:10:00,82.4,-0.6
2023/01/28 02:20:00,83.4,-0.2
2023/01/28 02:30:00,84.7,-0.6
2023/01/28 02:40:00,85.6,-0.5
2023/01/28 02:50:00,85.7,-0.6
2023/01/28 03:00:00,85.8,-0.7
2023/01/28 03:10:00,85.6,-0.7
2023/01/28 03:20:00,85.5,-0.8
2023/01/28 03:30:00,85.5,-0.6
2023/01/28 03:40:00,85.6,-0.7
2023/01/28 03:50:00,85.7,-0.7
2023/01/28 04:00:00,86.1,-0.8
2023/01/28 04:10:00,87.1,-0.9
2023/01/28 04:20:00,88.4,-0.9
2023/01/28 04:30:00,89.1,-0.8
2023/01/28 04:40:00,90.3,-0.9
2023/01/28 04:50:00,90.8,-0.8
2023/01/28 05:00:00,91.2,-1.3
2023/01/28 05:10:00,91.1,-1.2
2023/01/28 05:20:00,90.8,-1.1
2023/01/28 05:30:00,90.8,-1.2
2023/01/28 05:40:00,91.3,-1.2
2023/01/28 05:50:00,92.3,-1.1
2023/01/28 06:00:00,93.6,-1.4
2023/01/28 06:10:00,93.7,-1.3
2023/01/28 06:20:00,93.6,-0.7
2023/01/28 06:30:00,93.7,-1.3
2023/01/28 06:40:00,93.6,-1.3
2023/01/28 06:50:00,94.0,-1.2
2023/01/28 07:00:00,94.9,-1.4
2023/01/28 07:10:00,95.9,-1.4
2023/01/28 07:20:00,96.9,-1.2
2023/01/28 07:30:00,97.5,-1.1
2023/01/28 07:40:00,97.4,-1.2
2023/01/28 07:50:00,98.2,-1.4
2023/01/28 08:00:00,98.8,-1.1
2023/01/28 08:10:00,98.8,-1.0
2023/01/28 08:20:00,100.5,-0.6
2023/01/28 08:30:00,101.3,-0.3
2023/01/28 08:40:00,101.3, 1.3
2023/01/28 08:50:00,101.0, 0.2
2023/01/28 09:00:00,101.8,-0.3
2023/01/28 09:10:00,102.8,-0.4
2023/01/28 09:20:00,103.2,-0.1
2023/01/28 09:30:00,102.9, 0.1
2023/01/28 09:40:00,102.9, 0.6
2023/01/28 09:50:00,102.9, 1.0
2023/01/28 10:00:00,103.0, 0.7
2023/01/28 10:10:00,102.9, 0.6
2023/01/28 10:20:00,103.3, 0.5
2023/01/28 10:30:00,103.5, 1.1
2023/01/28 10:40:00,103.3, 2.7
2023/01/28 10:50:00,103.4, 2.1
2023/01/28 11:00:00,103.1, 1.2
2023/01/28 11:10:00,103.4, 0.8
2023/01/28 11:20:00,103.3, 0.9
2023/01/28 11:30:00,103.3, 1.3
2023/01/28 11:40:00,103.2, 1.4
2023/01/28 11:50:00,103.0, 2.1
2023/01/28 12:00:00,102.6, 4.0
2023/01/28 12:10:00,102.6, 2.8
2023/01/28 12:20:00,102.3, 3.6
2023/01/28 12:30:00,101.9, 3.7
2023/01/28 12:40:00,101.7, 3.0
2023/01/28 12:50:00,101.4, 3.4
2023/01/28 13:00:00,101.2, 3.4
2023/01/28 13:10:00,100.6, 2.6
2023/01/28 13:20:00,100.9, 1.7
2023/01/28 13:30:00,101.2, 1.5
2023/01/28 13:40:00,101.3, 1.7
2023/01/28 13:50:00,101.6, 2.0
2023/01/28 14:00:00,101.6, 1.1
2023/01/28 14:10:00,101.6, 1.0
2023/01/28 14:20:00,101.8, 1.2
2023/01/28 14:30:00,101.6, 3.1
2023/01/28 14:40:00,101.5, 2.5
2023/01/28 14:50:00,101.4, 1.4
2023/01/28 15:00:00,101.4, 1.0
2023/01/28 15:10:00,101.3, 1.5
2023/01/28 15:20:00,101.1, 1.7
2023/01/28 15:30:00,101.0, 0.9
2023/01/28 15:40:00,100.7, 1.1
2023/01/28 15:50:00,100.5, 1.4
2023/01/28 16:00:00,100.2, 0.8
2023/01/28 16:10:00,99.9, 0.6
2023/01/28 16:20:00,99.7, 0.9
2023/01/28 16:30:00,99.6, 0.8
2023/01/28 16:40:00,99.4, 0.4
2023/01/28 16:50:00,99.0,-0.1
2023/01/28 17:00:00,98.8,-0.1
2023/01/28 17:10:00,98.8,-0.2
2023/01/28 17:20:00,98.6,-0.6
2023/01/28 17:30:00,98.4,-0.8
2023/01/28 17:40:00,98.3,-0.7
2023/01/28 17:50:00,98.2,-1.0
2023/01/28 18:00:00,97.9,-1.1
2023/01/28 18:10:00,97.8,-1.5
2023/01/28 18:20:00,97.6,-1.4
2023/01/28 18:30:00,97.5,-1.4
2023/01/28 18:40:00,97.3,-1.8
2023/01/28 18:50:00,97.1,-1.8
2023/01/28 19:00:00,97.0,-1.7
2023/01/28 19:10:00,96.9,-2.0
2023/01/28 19:20:00,96.6,-2.2
2023/01/28 19:30:00,96.6,-2.1
2023/01/28 19:40:00,96.6,-2.1
2023/01/28 19:50:00,96.4,-2.2
2023/01/28 20:00:00,96.3,-2.3
2023/01/28 20:10:00,96.4,-2.3
2023/01/28 20:20:00,96.4,-2.2
2023/01/28 20:30:00,97.0,-2.6
2023/01/28 20:40:00,97.5,-2.4
2023/01/28 20:50:00,98.1,-2.2
2023/01/28 21:00:00,99.3,-2.4
2023/01/28 21:10:00,99.6,-2.4
2023/01/28 21:20:00,100.9,-2.5
2023/01/28 21:30:00,101.3,-2.4
2023/01/28 21:40:00,101.3,-2.3
2023/01/28 21:50:00,101.8,-2.2
2023/01/28 22:00:00,101.6,-2.3
2023/01/28 22:10:00,101.8,-2.3
2023/01/28 22:20:00,102.0,-2.4
2023/01/28 22:30:00,101.9,-2.1
2023/01/28 22:40:00,101.7,-2.1
2023/01/28 22:50:00,101.5,-1.4
2023/01/28 23:00:00,101.3,-2.3
2023/01/28 23:10:00,101.5,-2.5
2023/01/28 23:20:00,102.8,-2.6
2023/01/28 23:30:00,103.2,-2.5
2023/01/28 23:40:00,103.0,-2.4
2023/01/28 23:50:00,102.9,-2.5
